Overview Statistics Trail Chart Weather Telemetry Raw packets
 

This is the latest recevied weather packets stored in our database for station/object PA3BWK. If no packets are shown the sender has not sent any weather packets the latest 10 day(s).

<< 397 398 399 400 401 402 403 >>
Time Temp. Humidity Pressure Rain* Wind** Luminosity Snow
1788085735 19.44° C 90% 1010.3 hPa 0 mm - 164 W/m² -
1788085677 19.44° C 90% 1010.2 hPa 0 mm - 136 W/m² -
1788085615 19.44° C 90% 1010.2 hPa 0 mm - 136 W/m² -
1788085555 19.44° C 90% 1010.2 hPa 0 mm - 158 W/m² -
1788085494 19.44° C 90% 1010.2 hPa 0 mm - 192 W/m² -
1788085435 19.44° C 90% 1010.3 hPa 0 mm - 209 W/m² -
1788085374 19.44° C 90% 1010.2 hPa 0 mm - 201 W/m² -
1788085315 19.44° C 90% 1010.2 hPa 0 mm - 201 W/m² -
1788085254 19.44° C 90% 1010.2 hPa 0 mm - 192 W/m² -
1788085194 19.44° C 90% 1010.1 hPa 0 mm - 164 W/m² -
1788085136 19.44° C 90% 1010.1 hPa 0 mm - 153 W/m² -
1788085076 18.89° C 90% 1010.1 hPa 0 mm - 104 W/m² -
1788085016 18.89° C 90% 1010.1 hPa 0 mm - 120 W/m² -
1788084954 18.89° C 90% 1010.3 hPa 0 mm - 106 W/m² -
1788084893 18.89° C 90% 1010 hPa 0 mm - 113 W/m² -
1788084832 18.89° C 90% 1010 hPa 0 mm - 106 W/m² -
1788084770 18.89° C 90% 1010 hPa 0 mm - 116 W/m² -
1788084707 18.89° C 90% 1010.1 hPa 0 mm - 113 W/m² -
1788084647 18.89° C 90% 1010 hPa 0 mm - 81 W/m² -
1788084587 18.89° C 90% 1010 hPa 0 mm - 83 W/m² -
1788084524 18.89° C 90% 1010 hPa 0 mm - 85 W/m² -
1788084463 19.44° C 90% 1009.9 hPa 0 mm - 137 W/m² -
1788084401 19.44° C 90% 1009.9 hPa 0 mm - 109 W/m² -
1788084339 19.44° C 90% 1009.9 hPa 0 mm - 127 W/m² -
1788084280 19.44° C 90% 1010 hPa 0 mm - 134 W/m² -

* Rain latest hour (hover to see other rain measurements)
** Current wind speed in m/s (hover to see current wind gust speed)